Weather History for Milan, Italy

Change the Weather History Date:

Monday, December 16, 2013

  Actual Average Record
Temperature  
Mean Temperature 36 °F -  
Max Temperature 51 °F 43 °F 55 °F (2000)
Min Temperature 21 °F 25 °F 12 °F (2010)
Degree Days  
Heating Degree Days 29    
Moisture  
Dew Point 26 °F    
Average Humidity 76    
Maximum Humidity 93    
Minimum Humidity 41    
Precipitation  
Precipitation 0.00 in 0.08 in - ()
Sea Level Pressure  
Sea Level Pressure 30.57 in    
Wind  
Wind Speed 3 mph ()    
Max Wind Speed 7 mph    
Max Gust Speed -    
Visibility 11.0 miles    
Events      
Averages and records for this station are not official NWS values.
T = Trace of Precipitation, MM = Missing Value Source: Averaged Metar Reports

Daily Weather History Graph

Daily Weather History Graph

Search for Another Location

Airport:

Trip Planner

Search our weather history database for the weather conditions in past years. The results will help you decide how hot, cold, wet, or windy it might be!

Date:

Astronomy

Dec. 16, 2013 Rise Set
Actual Time 7:59 AM CET 4:41 PM CET
Civil Twilight 7:25 AM CET 5:16 PM CET
Nautical Twilight 6:47 AM CET 5:54 PM CET
Astronomical Twilight 6:11 AM CET 6:30 PM CET
Moon 4:22 PM CET (12/16) 6:51 AM CET (12/16)
Length of Visible Light 9h 51m
Length of Day
8h 42m
Waxing Gibbous, 99% of the Moon is Illuminated
Dec 16
Waxing Gibbous
Dec 17
Full
Dec 25
Last Quarter
Jan 1
New
Jan 8
First Quarter

Hourly Weather History & Observations

Time (CET) Temp. Windchill Dew Point Humidity Pressure Visibility Wind Dir Wind Speed Gust Speed Precip Events Conditions
12:20 AM 24.8 °F 19.1 °F 21.2 °F 86% 30.57 in - North 4.6 mph - N/A   Clear
12:50 AM 26.6 °F 21.2 °F 24.8 °F 93% 30.57 in - North 4.6 mph - N/A   Clear
1:20 AM 23.0 °F 15.8 °F 19.4 °F 86% 30.57 in - North 5.8 mph - N/A   Clear
1:50 AM 23.0 °F 17.0 °F 19.4 °F 86% 30.57 in - North 4.6 mph - N/A   Clear
2:20 AM 23.0 °F - 19.4 °F 86% 30.57 in - Variable 2.3 mph - N/A   Clear
2:50 AM 23.0 °F - 19.4 °F 86% 30.57 in - North 2.3 mph - N/A   Clear
3:20 AM 23.0 °F - 19.4 °F 86% 30.57 in - Variable 2.3 mph - N/A   Clear
3:50 AM 21.2 °F - 17.6 °F 86% 30.57 in - Variable 1.2 mph - N/A   Clear
4:20 AM 24.8 °F - 23.0 °F 93% 30.57 in - NNE 2.3 mph - N/A   Clear
4:50 AM 21.2 °F 16.4 °F 19.4 °F 93% 30.57 in - North 3.5 mph - N/A   Clear
5:20 AM 21.2 °F - 17.6 °F 86% 30.57 in - North 2.3 mph - N/A   Clear
5:50 AM 21.2 °F - 17.6 °F 86% 30.57 in - Variable 2.3 mph - N/A   Clear
6:20 AM 21.2 °F 14.9 °F 19.4 °F 93% 30.57 in - North 4.6 mph - N/A   Clear
6:50 AM 23.0 °F 18.4 °F 19.4 °F 86% 30.57 in - North 3.5 mph - N/A   Clear
7:20 AM 28.4 °F 21.2 °F 23.0 °F 80% 30.57 in - North 6.9 mph - N/A   Clear
7:50 AM 26.6 °F 19.1 °F 23.0 °F 86% 30.57 in - North 6.9 mph - N/A   Clear
8:20 AM 28.4 °F 21.2 °F 24.8 °F 86% 30.57 in - North 6.9 mph - N/A   Clear
8:50 AM 30.2 °F 25.4 °F 26.6 °F 86% 30.60 in - North 4.6 mph - N/A   Clear
9:20 AM 32.0 °F 28.7 °F 28.4 °F 87% 30.60 in - North 3.5 mph - N/A   Clear
9:50 AM 37.4 °F - 30.2 °F 75% 30.60 in - North 2.3 mph - N/A   Clear
10:20 AM 42.8 °F - 32.0 °F 66% 30.60 in - Variable 1.2 mph - N/A   Clear
10:50 AM 44.6 °F - 32.0 °F 61% 30.60 in - Variable 1.2 mph - N/A   Clear
11:20 AM 46.4 °F - 30.2 °F 53% 30.60 in - Variable 2.3 mph - N/A   Clear
11:50 AM 48.2 °F - 30.2 °F 50% 30.60 in - Variable 2.3 mph - N/A   Clear
12:20 PM 50.0 °F - 28.4 °F 43% 30.57 in - WSW 3.5 mph - N/A   Clear
12:50 PM 50.0 °F - 30.2 °F 47% 30.57 in - WSW 3.5 mph - N/A   Clear
1:20 PM 50.0 °F - 28.4 °F 43% 30.57 in - WSW 4.6 mph - N/A   Clear
1:50 PM 51.8 °F - 28.4 °F 41% 30.54 in - WSW 4.6 mph - N/A   Clear
2:20 PM 51.8 °F - 30.2 °F 44% 30.54 in - WSW 3.5 mph - N/A   Clear
2:50 PM 50.0 °F - 32.0 °F 50% 30.54 in - WSW 2.3 mph - N/A   Clear
3:20 PM 48.2 °F - 32.0 °F 54% 30.54 in - SW 3.5 mph - N/A   Clear
3:50 PM 46.4 °F 44.3 °F 30.2 °F 53% 30.54 in - SW 4.6 mph - N/A   Clear
4:20 PM 44.6 °F 42.2 °F 32.0 °F 61% 30.54 in - SW 4.6 mph - N/A   Clear
4:50 PM 41.0 °F 39.0 °F 32.0 °F 70% 30.54 in - SW 3.5 mph - N/A   Clear
5:20 PM 39.2 °F - 30.2 °F 70% 30.54 in - SW 2.3 mph - N/A   Clear
5:50 PM 35.6 °F 32.8 °F 30.2 °F 81% 30.54 in - North 3.5 mph - N/A   Clear
6:20 PM 32.0 °F 27.5 °F 26.6 °F 80% 30.54 in - North 4.6 mph - N/A   Clear
6:50 PM 33.8 °F 27.7 °F 26.6 °F 75% 30.57 in - North 6.9 mph - N/A   Clear
7:00 PM 31 °F - 27 °F 77% 30.62 in 11 mi North 5.8 mph - -  
7:20 PM 32.0 °F 26.4 °F 28.4 °F 87% 30.57 in - North 5.8 mph - N/A   Clear
7:50 PM 30.2 °F - 24.8 °F 80% 30.57 in - Variable 1.2 mph - N/A   Clear
8:20 PM 32.0 °F 26.4 °F 26.6 °F 80% 30.57 in - North 5.8 mph - N/A   Clear
8:50 PM 26.6 °F 22.6 °F 24.8 °F 93% 30.57 in - North 3.5 mph - N/A   Clear
9:20 PM 33.8 °F 28.6 °F 28.4 °F 81% 30.57 in - North 5.8 mph - N/A   Clear
9:50 PM 28.4 °F - 23.0 °F 80% 30.57 in - NNE 2.3 mph - N/A   Clear
10:00 PM 26 °F - 22 °F 79% 30.63 in 11 mi NNE 2.3 mph - -  
10:20 PM 28.4 °F 24.6 °F 26.6 °F 93% 30.57 in - North 3.5 mph - N/A   Clear
10:50 PM 26.6 °F - 23.0 °F 86% 30.57 in - Variable 2.3 mph - N/A   Clear
11:20 PM 24.8 °F 20.5 °F 23.0 °F 93% 30.57 in - North 3.5 mph - N/A   Clear
11:50 PM 24.8 °F - 23.0 °F 93% 30.57 in - North 2.3 mph - N/A   Clear